FW4110 Weather Reports


time (UTC)temp
C
wind
direction
speed
KPH
gust
KPH
rain 1hr
cm
rain 24hr
cm
rain mn
cm
humidity
%
barometer
mb
20260509150035 17 283 0.0 8.0 0.00 1.27 0.00 84 1012.2
20260509144533 17 135 0.0 8.0 0.00 1.27 0.00 92 1012.2
20260509143029 16 269 0.0 8.0 0.00 1.27 0.00 94 1012.2
20260509141534 15 208 1.6 9.7 0.00 1.27 0.00 93 1012.2
20260509140023 15 199 0.0 6.4 0.00 1.27 0.00 94 1012.2
20260509134520 14 324 0.0 11.3 0.00 1.27 0.00 93 1012.0
20260509133021 14 206 1.6 6.4 0.00 1.27 0.00 93 1011.9
20260509131519 13 287 1.6 8.0 0.00 1.27 0.00 93 1011.7
20260509130016 13 317 1.6 6.4 0.00 1.27 0.00 93 1011.6
20260509124517 13 315 0.0 8.0 0.00 1.27 0.00 93 1011.8
20260509123015 13 268 0.0 8.0 0.00 1.27 0.00 93 1011.8
20260509121513 13 301 0.0 6.4 0.00 1.27 0.00 93 1011.7
20260509120012 13 187 0.0 9.7 0.00 1.27 0.00 93 1011.9
20260509114509 -17 0.0 0.0 0.00 1.27 0.00 1011.7
20260509113004 -17 0.0 0.0 0.00 1.27 0.00 1011.4
20260509111602 -17 0.0 0.0 0.00 1.27 0.00 1011.0
20260509110055 -17 0.0 0.0 0.00 1.27 0.00 1011.2
20260509104554 -17 0.0 0.0 0.00 1.27 0.00 1011.3
20260509103055 -17 0.0 0.0 0.00 1.27 0.00 1011.2
20260509101544 -17 172 0.0 11.3 0.00 1.27 0.00 1010.9
20260509100042 13 214 1.6 8.0 0.00 1.27 0.00 93 1011.1
20260509094553 13 252 0.0 6.4 0.00 1.27 0.00 93 1011.1
20260509093042 13 138 1.6 8.0 0.00 1.27 0.00 93 1011.0
20260509091547 13 286 1.6 9.7 0.00 1.27 0.00 93 1010.9
20260509090048 13 280 0.0 8.0 0.00 1.27 0.00 93 1010.6
20260509084536 13 302 0.0 4.8 0.00 1.27 0.00 93 1010.5
20260509083035 13 153 0.0 8.0 0.00 1.27 0.00 93 1010.5
20260509081534 13 314 0.0 4.8 0.00 1.27 0.00 93 1010.5
20260509080041 13 241 0.0 6.4 0.00 1.27 0.00 93 1010.5
20260509074538 13 186 1.6 8.0 0.00 1.27 0.00 92 1010.4
20260509073045 13 159 0.0 6.4 0.00 1.27 0.00 92 1010.6
20260509071530 13 284 0.0 4.8 0.00 1.27 0.00 92 1010.6
20260509070029 13 251 0.0 8.0 0.00 1.27 0.00 92 1010.6
20260509064529 13 234 1.6 8.0 0.00 1.27 0.00 92 1010.6
20260509063031 13 280 3.2 12.9 0.00 1.27 0.00 92 1010.5
20260509061528 13 156 1.6 12.9 0.00 1.27 0.00 92 1010.5
20260509060029 13 160 0.0 6.4 0.00 1.27 0.00 92 1010.5
20260509054527 13 188 1.6 6.4 0.00 1.27 0.00 92 1010.5
20260509053034 13 182 4.8 8.0 0.00 1.27 0.00 92 1010.5
20260509051522 13 175 1.6 9.7 0.00 1.27 0.00 92 1010.5
20260509050020 13 242 4.8 14.5 0.03 1.27 0.00 91 1010.4
20260509044519 13 146 4.8 9.7 0.05 1.27 1.27 91 1010.7
20260509043037 13 152 1.6 8.0 0.10 1.27 1.27 91 1011.0
20260509041518 14 168 1.6 6.4 0.33 1.27 1.27 91 1011.2
20260509040017 14 173 0.0 0.0 0.56 1.24 1.24 91 1011.3
20260509034516 14 152 0.0 0.0 0.71 1.22 1.22 90 1011.4
20260509033016 14 57 0.0 0.0 0.79 1.17 1.17 89 1011.7
20260509031514 14 22 0.0 3.2 0.71 0.91 0.91 89 1011.9
20260509030013 14 10 0.0 6.4 0.61 0.66 0.66 86 1012.0
20260509024513 15 34 0.0 3.2 0.43 0.48 0.48 75 1011.5
20260509023013 15 20 3.2 8.0 0.33 0.38 0.38 55 1011.7
20260509021511 15 48 0.0 12.9 0.13 0.18 0.18 56 1011.8
20260509020009 15 50 0.0 8.0 0.00 0.05 0.05 59 1011.6
20260509014518 15 14 0.0 6.4 0.00 0.05 0.05 64 1011.3
20260509013006 15 110 0.0 1.6 0.05 0.05 0.05 75 1010.5
20260509011505 16 84 0.0 1.6 0.05 0.05 0.05 81 1010.5
20260509010005 16 111 0.0 1.6 0.05 0.05 0.05 84 1010.3
20260509004504 17 52 1.6 11.3 0.05 0.05 0.05 87 1010.3
20260509003003 18 355 0.0 3.2 0.00 0.00 0.00 86 1010.5
20260509001503 20 38 0.0 1.6 0.00 0.00 0.00 83 1010.2
20260509000002 20 15 3.2 6.4 0.00 0.00 0.00 78 1009.9
20260508234501 20 339 0.0 1.6 0.00 0.00 0.00 81 1010.2
20260508233119 21 339 0.0 0.0 0.00 0.00 0.00 79 1010.1
20260508233002 21 339 0.0 0.0 0.00 0.00 0.00 79 1010.1
20260508231603 21 339 0.0 0.0 0.00 0.00 0.00 79 1010.2
20260508230058 22 339 0.0 0.0 0.00 0.00 0.00 73 1010.3
20260508224559 22 339 0.0 1.6 0.00 0.00 0.00 69 1010.4
20260508223056 23 339 1.6 8.0 0.00 0.00 0.00 69 1010.4
20260508221558 23 21 1.6 9.7 0.00 0.00 0.00 67 1010.2
20260508220055 23 353 1.6 4.8 0.00 0.00 0.00 66 1010.2
20260508214551 22 338 1.6 12.9 0.00 0.00 0.00 69 1010.5
20260508213054 22 61 8.0 16.1 0.00 0.00 0.00 69 1010.6
20260508211548 22 36 8.0 14.5 0.00 0.00 0.00 71 1010.8
20260508210048 22 19 6.4 12.9 0.00 0.00 0.00 70 1010.9
20260508204546 22 339 6.4 17.7 0.00 0.00 0.00 68 1011.1
20260508203043 22 353 4.8 9.7 0.00 0.00 0.00 68 1011.3
20260508201540 23 346 0.0 8.0 0.00 0.00 0.00 67 1011.4
20260508200040 22 294 0.0 4.8 0.00 0.00 0.00 68 1011.7
20260508194536 23 347 0.0 8.0 0.00 0.00 0.00 67 1011.9
20260508193032 23 348 1.6 8.0 0.00 0.00 0.00 67 1011.9
20260508191532 22 236 1.6 9.7 0.00 0.00 0.00 69 1012.0
20260508190130 22 271 4.8 14.5 0.00 0.00 0.00 67 1012.0
20260508184527 22 328 1.6 14.5 0.00 0.00 0.00 69 1012.1
20260508183025 22 339 6.4 12.9 0.00 0.00 0.00 67 1012.4
20260508181532 21 289 3.2 11.3 0.00 0.00 0.00 70 1012.4
20260508180020 21 242 1.6 12.9 0.00 0.00 0.00 70 1012.6
20260508174518 21 285 1.6 11.3 0.00 0.00 0.00 71 1012.8
20260508173013 20 289 3.2 12.9 0.00 0.00 0.00 71 1013.0
20260508171510 20 336 1.6 16.1 0.00 0.00 0.00 73 1013.2
20260508170006 19 231 3.2 11.3 0.00 0.00 0.00 73 1013.7
20260508164502 18 261 3.2 8.0 0.00 0.00 0.00 74 1014.0
20260508163108 18 249 1.6 6.4 0.00 0.00 0.00 75 1014.3
20260508161559 17 226 1.6 8.0 0.00 0.00 0.00 75 1014.4
20260508160057 17 265 0.0 14.5 0.00 0.00 0.00 75 1014.5
20260508154555 17 249 0.0 9.7 0.00 0.00 0.00 75 1014.8
20260508153105 17 137 4.8 12.9 0.00 0.00 0.00 74 1014.9
20260508151552 17 245 3.2 17.7 0.00 0.00 0.00 74 1015.2